Showing default

FORMOSAT7-5/COSMIC2-5, 44358

Orbit data source: Space-Track

FORMOSAT7-5/COSMIC2-5, 44358 is a payload satellite owned by NSPO (TW) in LEO that was launched on Tue, 25 Jun 2019 UTC via an FALCON HEAVY launch vehicle from the Air Force Eastern Test Range (AFETR). Payload-class satellites include a variety of spacecraft equipped with specific instruments for various scientific and technological missions. These include communications satellites like Starlink; space stations such as the ISS; scientific satellites like the Hubble; Earth observation satellites from companies like Planet Labs, Umbra, and HawkEye 360; GPS; miniature CubeSats for education and research; and military/defense satellites.

Not visible in the next 10 days
Identifier
44358, 2019-036V
Orbit
LEO
Country
Flag of TWTW / TWN
Related business
Manufacturer
SSTL (Astrium)
Mission
Operational Civil Weather
Bus & Motor
SSTL-100, Unknown motor
Mass
278 kg wet, 278 kg dry
Launch date (UTC)
2019-06-25 (7 years ago)
Launch vehicle
FALCON HEAVY
Launch site
Air Force Eastern Test Range (AFETR)
Object type
Payload
Rocket body
Debris
Shape & HBR
Box + 1 Pan, 1.5 m
Radar Cross Section
2.189 m², Large (>1 m²)

Expand to show TLE details & history
Last TLE update: 18 hours ago

TLE from 18 hours ago
0 FORMOSAT7-5/COSMIC2-5
1 44358U 19036V   26094.18245049  .00005122  00000-0  41734-3 0  9999
2 44358  23.9998  47.1724 0000613  68.6651 291.3916 14.96188719371256
Epoch: 2026-04-04T04:22Z
TLE epoch observation values (Epoch: 2026-04-04T04:22:43.722Z)
Latitude
0.00003°
Longitude
148.98439°
Altitude
576.42 km
Speed
7.575 km/s
True Right ascension
03h 08m 41s
True Declination
0° 00' 00"
Sunlit
Object was in daylight at epoch
Visualization orbit readout
Latitude
Unknown
Longitude
Unknown
Altitude
Unknown
Speed
Unknown
Apparent Right ascension
Unknown
Apparent Declination
Unknown
Sunlit
N/A
Visualization observer readout
Local Sidereal Time
04:23:14
Azimuth
Unknown
Elevation
Unknown
Doppler factor
Unknown
Orbital elements
Apogee altitude
583.879 km
Perigee altitude
583.025 km
Semi-major axis
6,961.589 km
Eccentricity
0.00006
Inclination
23.9998°
RAAN
47.1724°
Arg. of periapsis
68.6651°
True anomaly
291.38506°
Mean anomaly
291.3916°
Eccentric anomaly
291.38833°
Mean motion
3.73663 °/min
Orbital period
96.34 mins
BSTAR
0.00041734
Loading maneuver chart data...
Computing Atmospheric mass density...
Loading historical data...
Loading historical data...
Loading historical data...
Loading historical data...
Loading historical data...
Loading historical data...
Loading historical data...

Documentation

Showing up to 5 results
|